Belize, Belize

2:54 AM CST on July 24, 2017 (GMT -0600)
Philip S W Goldson International

Weather History for MZBZ - March, 2013

Change the Weather History Date:

Tuesday, March 26, 2013

  Actual Average Record
Temperature  
Mean Temperature 78 °F -  
Max Temperature 80 °F 87 °F 88 °F (2016)
Min Temperature 75 °F 73 °F 66 °F (1998)
Cooling Degree Days 12    
Growing Degree Days 28 (Base 50)    
Moisture  
Dew Point 68 °F    
Average Humidity 71    
Maximum Humidity 83    
Minimum Humidity 60    
Precipitation  
Precipitation 0.00 in 0.07 in - ()
Sea Level Pressure  
Sea Level Pressure 30.05 in    
Wind  
Wind Speed 12 mph ()    
Max Wind Speed 16 mph    
Max Gust Speed -    
Visibility 8.2 miles    
Events      
Averages and records for this station are not official NWS values.
T = Trace of Precipitation, MM = Missing Value Source: Averaged Metar Reports

Daily Weather History Graph

Daily Weather History Graph

Search for Another Location

Airport or City:

Trip Planner

Search our weather history database for the weather conditions in past years. The results will help you decide how hot, cold, wet, or windy it might be!

Date:

Astronomy

Mar. 26, 2013 Rise Set
Actual Time 5:52 AM CST 6:05 PM CST
Civil Twilight 5:30 AM CST 6:27 PM CST
Nautical Twilight 5:05 AM CST 6:52 PM CST
Astronomical Twilight 4:39 AM CST 7:17 PM CST
Moon 5:39 PM CST (3/26) 5:06 AM CST (3/26)
Length of Visible Light 12h 56m
Length of Day
12h 13m
Waxing Gibbous, 99% of the Moon is Illuminated
Mar 26
Waxing Gibbous
Mar 27
Full
Apr 2
Last Quarter
Apr 10
New
Apr 18
First Quarter

Hourly Weather History & Observations

Time (CST) Temp. Dew Point Humidity Pressure Visibility Wind Dir Wind Speed Gust Speed Precip Events Conditions
12:00 AM 80 °F 71 °F 67% 29.95 in 12 mi North 13.8 mph - -   Scattered Clouds
3:00 AM 77 °F 71 °F 76% 29.95 in 12 mi North 13.8 mph - -   Mostly Cloudy
5:00 AM 77.0 °F 69.8 °F 78% 29.95 in 6.2 mi North 13.8 mph - N/A   Mostly Cloudy
6:00 AM 76 °F 70 °F 75% 30.00 in 12 mi North 15.0 mph - -   Mostly Cloudy
6:00 AM 77.0 °F 69.8 °F 78% 29.98 in 6.2 mi North 15.0 mph - N/A   Mostly Cloudy
7:00 AM 75.2 °F 69.8 °F 83% 30.04 in 6.2 mi NNW 15.0 mph - N/A   Mostly Cloudy
8:00 AM 75.2 °F 69.8 °F 83% 30.06 in 6.2 mi North 15.0 mph - N/A   Mostly Cloudy
9:00 AM 76 °F 68 °F 71% 30.09 in 12 mi North 15.0 mph - -   Mostly Cloudy
9:00 AM 75.2 °F 68.0 °F 78% 30.09 in 6.2 mi North 15.0 mph - N/A   Mostly Cloudy
10:00 AM 77.0 °F 68.0 °F 74% 30.08 in 6.2 mi North 13.8 mph - N/A   Mostly Cloudy
11:00 AM 78.8 °F 68.0 °F 69% 30.08 in 6.2 mi North 16.1 mph - N/A   Mostly Cloudy
12:00 PM 79 °F 68 °F 62% 30.08 in 12 mi North 12.7 mph - -   Mostly Cloudy
12:00 PM 78.8 °F 68.0 °F 69% 30.07 in 6.2 mi North 12.7 mph - N/A   Mostly Cloudy
1:00 PM 78.8 °F 68.0 °F 69% 30.05 in 6.2 mi North 12.7 mph - N/A   Mostly Cloudy
2:00 PM 78.8 °F 68.0 °F 69% 30.03 in 6.2 mi NNE 10.4 mph - N/A   Mostly Cloudy
3:00 PM 79 °F 68 °F 61% 30.04 in 12 mi North 11.5 mph - -   Mostly Cloudy
3:00 PM 78.8 °F 68.0 °F 69% 30.04 in 6.2 mi North 11.5 mph - N/A   Mostly Cloudy
4:00 PM 78.8 °F 68.0 °F 69% 30.04 in 6.2 mi North 12.7 mph - N/A   Mostly Cloudy
5:00 PM 78.8 °F 66.2 °F 65% 30.05 in 6.2 mi North 11.5 mph - N/A   Mostly Cloudy
6:00 PM 77 °F 67 °F 65% 30.07 in 12 mi North 10.4 mph - -   Mostly Cloudy
6:00 PM 77.0 °F 68.0 °F 74% 30.07 in 6.2 mi North 10.4 mph - N/A   Mostly Cloudy
7:00 PM 77.0 °F 68.0 °F 74% 30.09 in 6.2 mi NE 9.2 mph - N/A   Mostly Cloudy
9:00 PM 78 °F 67 °F 60% 30.14 in 12 mi NNE 13.8 mph - -   Mostly Cloudy